Location: Unspecified
(0.0000°N, 0.0000°E)
Time: 18:07:59
(UTC+00:00)

Altair - All Passes

Search period start: 10 August 2020 00:00
Search period end: 20 August 2020 00:00
Orbit: 1501 x 1682 km, 47.2° (Epoch: 09 August)

Date Brightness Start Highest point End Pass type
(mag) Time Alt. Az. Time Alt. Az. Time Alt. Az.
10 Aug - 00:46:58 10° WSW 00:55:57 38° NW 01:04:41 10° NNE visible
10 Aug - 09:29:57 10° N 09:35:36 18° NE 09:41:18 10° E daylight
10 Aug - 11:31:03 10° NW 11:40:17 87° SW 11:49:52 10° SE daylight
10 Aug - 13:39:53 10° W 13:45:16 16° SW 13:50:48 10° S daylight
10 Aug - 22:16:41 10° SSW 22:26:07 43° SE 22:35:15 10° ENE night (unlit)
11 Aug - 00:21:28 10° WSW 00:30:45 43° NW 00:39:46 10° NNE visible
11 Aug - 09:05:32 10° NNE 09:10:22 15° NE 09:15:13 10° E daylight
11 Aug - 11:05:55 10° NW 11:15:08 85° NE 11:24:40 10° SE daylight
11 Aug - 13:13:56 10° W 13:20:00 19° SW 13:26:14 10° S daylight
11 Aug - 21:51:42 10° SSW 22:00:53 38° SE 22:09:49 10° ENE night (unlit)
11 Aug - 23:56:01 10° WSW 00:05:33 48° NW 00:14:49 10° NNE night (unlit)
12 Aug - 08:41:22 10° NNE 08:45:07 13° NE 08:48:51 10° ENE daylight
12 Aug - 10:40:49 10° NW 10:49:59 76° NE 10:59:27 10° SE daylight
12 Aug - 12:48:09 10° W 12:54:45 21° SW 13:01:34 10° S daylight
12 Aug - 21:26:45 10° SSW 21:35:38 34° SE 21:44:19 10° ENE visible
12 Aug - 23:30:37 10° SW 23:40:21 54° NW 23:49:50 10° NNE night (unlit)
13 Aug - 08:17:51 10° NNE 08:19:50 11° NE 08:21:49 10° ENE daylight
13 Aug - 10:15:45 10° NNW 10:24:51 68° NE 10:34:12 10° SE daylight
13 Aug - 12:22:26 10° W 12:29:31 24° SW 12:36:49 10° S daylight
13 Aug - 21:01:51 10° S 21:10:24 30° SE 21:18:46 10° ENE visible
13 Aug - 23:05:15 10° SW 23:15:10 60° NW 23:24:48 10° NNE night (unlit)
14 Aug - 09:50:42 10° NNW 09:59:42 61° NE 10:08:55 10° SE daylight
14 Aug - 11:56:49 10° WNW 12:04:18 27° SW 12:12:00 10° S daylight
14 Aug - 20:37:00 10° S 20:45:09 27° SE 20:53:09 10° ENE visible
14 Aug - 22:39:55 10° SW 22:49:59 67° NW 22:59:45 10° NNE night (unlit)
15 Aug - 00:52:10 10° WNW 00:55:10 12° NW 00:58:10 10° NNW visible
15 Aug - 09:25:42 10° NNW 09:34:34 54° NE 09:43:36 10° SE daylight
15 Aug - 11:31:16 10° WNW 11:39:05 31° SW 11:47:09 10° S daylight
15 Aug - 20:12:12 10° S 20:19:53 24° SE 20:27:27 10° E visible
15 Aug - 22:14:39 10° SW 22:24:47 75° NW 22:34:39 10° NNE visible
16 Aug - 00:25:22 10° WNW 00:29:52 14° NW 00:34:20 10° NNW night (unlit)
16 Aug - 09:00:43 10° NNW 09:09:24 48° NE 09:18:15 10° ESE daylight
16 Aug - 11:05:47 10° WNW 11:13:54 35° SW 11:22:16 10° SSE daylight
16 Aug - 19:47:28 10° S 19:54:36 21° SE 20:01:39 10° E visible
16 Aug - 21:49:23 10° SW 21:59:35 83° NW 22:09:32 10° NE visible
16 Aug - 23:59:01 10° W 00:04:34 16° NW 00:10:05 10° NNW night (unlit)
17 Aug - 08:35:46 10° NNW 08:44:15 42° NE 08:52:51 10° ESE daylight
17 Aug - 10:40:21 10° WNW 10:48:43 39° SW 10:57:20 10° SSE daylight
17 Aug - 19:22:50 10° S 19:29:19 19° SE 19:35:44 10° E visible
17 Aug - 21:24:10 10° SW 21:34:23 89° SE 21:44:23 10° NE visible
17 Aug - 23:32:54 10° W 23:39:18 19° NW 23:45:37 10° N night (unlit)
18 Aug - 08:10:51 10° NNW 08:19:06 37° NE 08:27:25 10° ESE daylight
18 Aug - 10:14:58 10° WNW 10:23:32 44° SW 10:32:22 10° SSE daylight
18 Aug - 18:58:19 10° S 19:04:01 16° SE 19:09:39 10° E visible
18 Aug - 20:58:59 10° SW 21:09:12 81° SE 21:19:11 10° NE visible
18 Aug - 23:06:58 10° W 23:14:02 21° NW 23:21:00 10° N night (unlit)
19 Aug - 07:45:58 10° NNW 07:53:56 33° NE 08:01:55 10° ESE daylight
19 Aug - 09:49:38 10° WNW 09:58:22 50° SW 10:07:22 10° SSE daylight
19 Aug - 18:33:59 10° SSE 18:38:41 14° SE 18:43:22 10° ESE visible
19 Aug - 20:33:49 10° SSW 20:44:00 73° SE 20:53:58 10° NE visible
19 Aug - 22:41:08 10° W 22:48:47 24° NW 22:56:19 10° N visible
